Погода в Пудости

Россия / Санкт-Петербург и Ленинградская область     59°36′55″N   30°02′30″E
темп.,
°C
ветер,
м/с
пор.,
м/с
влажн.,
%
обл.,
%
осадки,
мм/ч
давл.,
гПа
погр.,
м
4 марта, чт
чт400:00+1сз61192100 2.1 1002955
03:00−2сз4118682 2.2 1003554
06:00−4сз410900 0.0 1002380
09:00−5сз39910 0.0 1003380
12:00−2сз468136 0.0 1003668
15:00−3сз468266 0.1 1004834
18:00−4сз4884100 0.1 1004911
21:00−6сз398797 0.2 1005377
5 марта, пт
пт500:00−7зсз389011 0.0 1005243
03:00−8сз26945 0.0 1007206
06:00−8сз379630 0.0 1007308
09:00−8сз379153 0.0 1009396
12:00−6ссз358194 0.0 1011584
15:00−5ссз357797 0.1 1013779
18:00−6сз368399 0.0 1014474
21:00−7ссз389391 0.1 1016378
6 марта, сб
сб600:00−9сз249436 0.0 1017131
03:00−9зсз269441 0.0 1018157
06:00−10зсз26950 0.0 1018146
09:00−8з38880 0.0 1017319
12:00−4юз597122 0.0 1014820
15:00−3юз7127260 0.0 1010970
18:00−2юз81791100 1.3 10041341
21:00−2зюз81791100 2.3 9981298
7 марта, вс
вс700:00−2зюз71693100 1.4 9941210
03:00−5зсз51083100 3.8 993890
06:00−8зсз6129276 0.3 9931032
09:00−8з5136771 0.5 9931645
12:00−5з51173100 0.7 9911606
15:00−6зсз4890100 1.4 989734
18:00−7зсз4887100 1.3 991741
21:00−8с71278100 1.9 9961139
8 марта, пн
пн800:00−11ссз51184100 0.1 1000582
03:00−11ссз51190100 0.1 1003715
06:00−14ссз51190100 0.2 1004726
09:00−14ссз51088100 0.3 1007699
12:00−13ссз5985100 0.1 1010689
15:00−12ссз5883100 0.1 1013754
18:00−11с4986100 0.1 1015806
21:00−14с41092100 0.1 1018506